Tracking 25195 objects as of 20-Jan-2022
HD Live streaming from Space Station
objects crossing your sky now

FLOCK 4EP 2

Track FLOCK 4EP 2 now!
10-day predictions
FLOCK 4EP 2 is classified as:


NORAD ID: 46820
Int'l Code: 2020-077H
Perigee: 507.0 km
Apogee: 526.8 km
Inclination: 97.4 °
Period: 94.8 minutes
Semi major axis: 6887 km
RCS: Unknown
Launch date: October 28, 2020
Source: United States (US)
Launch site: Rocket Lab Launch Complex (RLLC)
aabbcc
Your satellite tracking list
Your tracking list is empty




NASA's NSSDC Master Catalog

Two Line Element Set (TLE):
1 46820U 20077H   22020.45735789  .00002226  00000-0  11036-3 0  9996
2 46820  97.4474  86.3609 0014324 170.4170 189.7340 15.18697472 68043
Source of the keplerian elements: AFSPC